period_start,C,m1,H,J0,J1,J2,J3,J4,J5,JA,JB,JC,JD,JJ,JK,JN,#
2016-10-25 00:04:44,0.06,0.31,0.00,19.24,24.74,28.25,14.71,48.41,1012.69,2041.99,3415.72,3071.26,3480.34,599.73,601.06,5.42,0000 0000 0000 0000 000000
2016-10-25 00:09:46,0.05,0.32,0.00,19.19,24.72,28.21,14.77,48.44,1012.71,2041.99,3414.48,3070.56,3479.33,600.06,601.58,5.47,0000 0000 0000 0000 000000
2016-10-25 00:14:47,0.04,0.32,0.00,19.21,24.72,28.20,14.76,48.48,1012.71,2041.99,3413.36,3069.83,3478.54,599.90,601.19,5.52,0000 0000 0000 0000 000000
2016-10-25 00:19:48,0.05,0.32,0.00,19.19,24.71,28.18,14.68,48.47,1012.70,2042.00,3412.03,3069.02,3477.58,600.03,601.68,5.57,0000 0000 0000 0000 000000
2016-10-25 00:24:49,0.06,0.32,0.00,19.18,24.70,28.20,14.76,48.35,1012.70,2042.00,3410.75,3068.22,3476.69,599.79,601.40,5.63,0000 0000 0000 0000 000000
2016-10-25 00:29:51,0.06,0.33,0.00,19.21,24.70,28.19,14.78,48.52,1012.70,2042.01,3409.50,3067.40,3475.72,599.98,601.41,5.68,0000 0000 0000 0000 000000
2016-10-25 00:34:52,0.05,0.33,0.00,19.18,24.69,28.20,14.77,48.33,1012.65,2042.02,3408.29,3066.61,3474.78,599.78,601.25,5.73,0000 0000 0000 0000 000000
2016-10-25 00:39:53,0.05,0.33,0.00,19.15,24.69,28.15,14.82,48.38,1012.64,2042.02,3407.01,3065.82,3473.83,600.30,601.94,5.78,0000 0000 0000 0000 000000
2016-10-25 00:44:54,0.05,0.33,0.00,19.19,24.67,28.25,14.81,48.49,1012.67,2042.03,3405.69,3065.00,3472.90,600.11,601.55,5.83,0000 0000 0000 0000 000000
2016-10-25 00:49:56,0.06,0.34,0.00,19.18,24.67,28.24,14.78,48.33,1012.70,2042.15,3404.46,3064.12,3471.95,599.76,601.30,5.88,0000 0000 0000 0000 000000
2016-10-25 00:54:57,0.05,0.34,0.00,19.18,24.67,28.24,14.69,48.44,1012.71,2042.05,3403.15,3063.29,3470.84,599.82,601.42,5.93,0000 0000 0000 0000 000000
2016-10-25 00:59:58,0.06,0.34,0.00,19.16,24.67,28.21,14.76,48.48,1012.71,2042.07,3401.75,3062.32,3469.84,600.11,601.59,5.98,0000 0000 0000 0000 000000
2016-10-25 01:04:59,0.06,0.35,0.00,19.16,24.67,28.23,14.75,48.54,1012.71,2042.10,3400.32,3061.43,3468.79,599.98,601.52,6.03,0000 0000 0000 0000 000000
2016-10-25 01:10:01,0.08,0.35,0.00,19.16,24.66,28.24,14.71,48.58,1012.71,2042.23,3398.78,3060.48,3467.67,599.63,601.22,6.08,0000 0000 0000 0000 000000
2016-10-25 01:15:02,0.04,0.35,0.00,19.17,24.65,28.22,14.77,48.47,1012.71,2042.25,3397.56,3059.58,3466.47,600.05,601.65,6.13,0000 0000 0000 0000 000000
2016-10-25 01:20:03,0.05,0.36,0.00,19.16,24.65,28.22,14.76,48.49,1012.73,2042.13,3396.26,3058.69,3465.41,599.78,601.37,6.18,0000 0000 0000 0000 000000
2016-10-25 01:25:05,0.05,0.36,0.00,19.16,24.65,28.23,14.73,48.44,1012.73,2042.10,3394.82,3057.81,3464.42,600.09,601.72,6.23,0000 0000 0000 0000 000000
2016-10-25 01:30:06,0.05,0.36,0.00,19.12,24.63,28.20,14.82,48.65,1012.75,2042.08,3393.44,3056.89,3463.42,599.96,601.64,6.28,0000 0000 0000 0000 000000
2016-10-25 01:35:07,0.05,0.37,0.00,19.14,24.62,28.22,14.73,48.33,1012.76,2042.04,3391.96,3056.02,3462.27,599.97,601.62,6.33,0000 0000 0000 0000 000000
2016-10-25 01:40:08,0.06,0.37,0.00,19.15,24.62,28.22,14.76,48.08,1012.73,2042.08,3390.79,3055.13,3461.36,600.12,601.77,6.38,0000 0000 0000 0000 000000
2016-10-25 01:45:10,0.06,0.37,0.00,19.15,24.62,28.17,14.77,47.75,1012.75,2042.18,3389.70,3054.35,3460.42,600.12,601.72,6.43,0000 0000 0000 0000 000000
2016-10-25 01:50:11,0.09,0.37,0.00,19.14,24.62,28.18,14.75,47.88,1012.79,2042.44,3388.37,3053.54,3459.53,599.30,600.96,6.48,0000 0000 0000 0000 000000
2016-10-25 01:55:12,0.10,0.38,0.00,19.13,24.60,28.15,14.77,48.02,1012.84,2042.83,3386.67,3052.56,3458.50,599.90,601.26,6.53,0000 0000 0000 0000 000000
2016-10-25 02:00:14,0.06,0.38,0.00,19.12,24.60,28.20,14.76,47.74,1012.83,2042.94,3385.07,3051.62,3457.42,600.10,601.79,6.58,0000 0000 0000 0000 000000
2016-10-25 02:05:15,0.07,0.39,0.00,19.12,24.60,28.21,14.68,47.67,1012.87,2042.97,3383.32,3050.53,3456.17,600.27,602.00,6.63,0000 0000 0000 0000 000000
2016-10-25 02:10:16,0.08,0.39,0.00,19.13,24.60,28.17,14.69,47.81,1012.78,2042.99,3381.38,3049.36,3454.82,599.43,601.09,6.68,0000 0000 0000 0000 000000
2016-10-25 02:15:17,0.07,0.40,0.00,19.10,24.60,28.16,14.76,47.65,1012.83,2042.98,3379.58,3048.07,3453.46,600.03,601.69,6.73,0000 0000 0000 0000 000000
2016-10-25 02:20:19,0.09,0.40,0.00,19.10,24.60,28.16,14.83,48.29,1012.83,2042.98,3377.69,3046.82,3451.86,600.03,601.80,6.78,0000 0000 0000 0000 000000
2016-10-25 02:25:20,0.07,0.40,0.00,19.13,24.60,28.18,14.67,47.82,1012.79,2042.98,3376.04,3045.66,3450.57,599.68,601.41,6.83,0000 0000 0000 0000 000000
2016-10-25 02:30:21,0.09,0.41,0.00,19.10,24.60,28.15,14.71,47.99,1012.84,2042.97,3374.08,3044.41,3449.16,600.16,602.10,6.88,0000 0000 0000 0000 000000
2016-10-25 02:35:22,0.09,0.41,0.00,19.08,24.60,28.15,14.81,48.15,1012.90,2042.98,3371.75,3042.99,3447.66,600.24,601.90,6.93,0000 0000 0000 0000 000000
2016-10-25 02:40:24,0.07,0.42,0.00,19.07,24.60,28.14,14.75,48.30,1013.08,2042.97,3370.00,3041.75,3446.08,600.12,602.06,6.98,0000 0000 0000 0000 000000
2016-10-25 02:45:25,0.05,0.42,0.00,19.11,24.59,28.16,14.85,48.35,1013.12,2042.97,3368.73,3040.89,3445.00,600.75,602.64,7.03,0000 0000 0000 0000 000000
2016-10-25 02:50:26,0.05,0.42,0.00,19.15,24.59,28.16,14.75,48.16,1013.08,2042.96,3367.55,3040.07,3444.05,599.83,601.73,7.08,0000 0000 0000 0000 000000
2016-10-25 02:55:27,0.06,0.43,0.00,19.11,24.59,28.14,14.71,47.98,1013.09,2042.97,3366.27,3039.30,3443.10,599.60,601.67,7.13,0000 0000 0000 0000 000000
2016-10-25 03:00:29,0.06,0.43,0.00,19.12,24.59,28.14,14.70,47.85,1013.09,2042.96,3364.87,3038.26,3442.09,599.99,601.85,7.18,0000 0000 0000 0000 000000
2016-10-25 03:05:30,0.06,0.43,0.00,19.12,24.59,28.13,14.66,47.79,1013.14,2042.96,3363.51,3037.37,3441.09,599.92,601.59,7.23,0000 0000 0000 0000 000000
2016-10-25 03:10:32,0.05,0.44,0.00,19.13,24.60,28.16,14.73,47.94,1013.09,2042.97,3362.14,3036.53,3440.09,599.93,601.88,7.28,0000 0000 0000 0000 000000
2016-10-25 03:15:33,0.06,0.44,0.00,19.13,24.60,28.14,14.78,48.14,1013.08,2042.96,3360.74,3035.67,3439.11,600.29,602.15,7.33,0000 0000 0000 0000 000000
2016-10-25 03:20:35,0.06,0.44,0.00,19.15,24.60,28.16,14.82,48.35,1013.12,2042.98,3359.31,3034.72,3438.02,599.81,601.63,7.38,0000 0000 0000 0000 000000
2016-10-25 03:25:36,0.05,0.45,0.00,19.16,24.60,28.15,14.71,47.92,1013.14,2042.99,3357.83,3033.86,3436.98,599.87,601.70,7.43,0000 0000 0000 0000 000000
2016-10-25 03:30:37,0.07,0.45,0.00,19.14,24.60,28.15,14.73,48.17,1013.18,2042.98,3356.40,3032.81,3435.85,600.29,602.01,7.48,0000 0000 0000 0000 000000
2016-10-25 03:35:38,0.06,0.45,0.00,19.16,24.60,28.14,14.86,48.23,1013.20,2042.97,3354.86,3031.84,3434.68,600.71,602.27,7.53,0000 0000 0000 0000 000000
2016-10-25 03:40:40,0.08,0.46,0.00,19.15,24.61,28.11,14.84,48.38,1013.20,2042.98,3353.06,3030.66,3433.43,600.46,602.22,7.58,0000 0000 0000 0000 000000
2016-10-25 03:45:40,0.09,0.46,0.00,19.13,24.62,28.15,14.72,48.27,1013.20,2042.98,3350.97,3029.29,3431.84,599.84,601.73,7.63,0000 0000 0000 0000 000000
2016-10-25 03:50:42,0.10,0.47,0.00,19.13,24.62,28.17,14.89,48.38,1013.19,2042.97,3348.76,3027.79,3430.17,600.49,602.50,7.68,0000 0000 0000 0000 000000
2016-10-25 03:55:43,0.10,0.47,0.00,19.17,24.62,28.17,14.77,48.27,1013.20,2042.97,3346.42,3026.25,3428.48,600.65,602.58,7.73,0000 0000 0000 0000 000000
2016-10-25 04:00:44,0.11,0.48,0.00,19.17,24.63,28.16,14.78,48.28,1013.20,2042.97,3343.94,3024.43,3426.52,600.14,601.87,7.78,0000 0000 0000 0000 000000
2016-10-25 04:05:46,0.11,0.48,0.00,19.19,24.64,28.17,14.82,48.65,1013.20,2042.97,3341.49,3022.78,3424.74,600.06,601.78,7.83,0000 0000 0000 0000 000000
2016-10-25 04:10:47,0.10,0.49,0.00,19.17,24.65,28.19,14.81,48.38,1013.20,2042.94,3339.04,3021.09,3422.84,599.81,601.75,7.88,0000 0000 0000 0000 000000
2016-10-25 04:15:48,0.10,0.49,0.00,19.18,24.65,28.17,14.80,48.33,1013.20,2042.94,3336.60,3019.56,3421.00,599.95,601.73,7.93,0000 0000 0000 0000 000000
2016-10-25 04:20:49,0.09,0.50,0.00,19.20,24.65,28.18,14.75,48.27,1013.20,2042.93,3334.38,3018.05,3419.30,600.38,602.12,7.99,0000 0000 0000 0000 000000
2016-10-25 04:25:50,0.11,0.51,0.00,19.22,24.67,28.17,14.71,48.06,1013.20,2042.92,3331.98,3016.44,3417.52,600.12,601.77,8.04,0000 0000 0000 0000 000000
2016-10-25 04:30:51,0.13,0.51,0.00,19.21,24.67,28.15,14.76,48.24,1013.20,2042.94,3329.09,3014.60,3415.50,600.20,602.08,8.09,0000 0000 0000 0000 000000
2016-10-25 04:35:53,0.13,0.52,0.00,19.22,24.67,28.17,14.75,48.23,1013.19,2042.93,3326.25,3012.69,3413.41,599.81,601.56,8.14,0000 0000 0000 0000 000000
2016-10-25 04:40:54,0.09,0.52,0.00,19.22,24.67,28.18,14.68,48.09,1013.20,2042.92,3323.80,3011.14,3411.54,599.56,601.42,8.19,0000 0000 0000 0000 000000
2016-10-25 04:45:55,0.05,0.53,0.00,19.25,24.67,28.18,14.73,48.14,1013.21,2042.71,3322.24,3009.93,3410.17,600.03,601.68,8.24,0000 0000 0000 0000 000000
2016-10-25 04:50:57,0.07,0.53,0.00,19.24,24.69,28.19,14.81,48.79,1013.21,2042.52,3320.62,3008.88,3408.91,600.13,601.87,8.29,0000 0000 0000 0000 000000
2016-10-25 04:55:58,0.06,0.53,0.00,19.28,24.69,28.19,14.73,48.61,1013.20,2042.68,3319.16,3007.98,3407.80,599.95,601.49,8.34,0000 0000 0000 0000 000000
2016-10-25 05:00:59,0.04,0.54,0.00,19.26,24.70,28.17,14.81,48.71,1013.22,2042.37,3317.58,3007.00,3406.59,599.80,601.51,8.39,0000 0000 0000 0000 000000
2016-10-25 05:06:00,0.07,0.54,0.00,19.26,24.70,28.17,14.80,48.76,1013.22,2042.29,3316.03,3006.03,3405.45,599.76,601.34,8.44,0000 0000 0000 0000 000000
2016-10-25 05:11:02,0.05,0.54,0.00,19.29,24.70,28.18,14.66,48.02,1013.23,2042.24,3314.57,3005.03,3404.33,599.46,601.24,8.49,0000 0000 0000 0000 000000
2016-10-25 05:16:03,0.06,0.55,0.00,19.29,24.71,28.21,14.74,48.24,1013.21,2042.17,3312.99,3003.98,3403.06,599.78,601.44,8.54,0000 0000 0000 0000 000000
2016-10-25 05:21:05,0.06,0.55,0.00,19.30,24.72,28.19,14.66,48.35,1013.21,2042.04,3311.43,3002.88,3401.77,599.66,601.21,8.59,0000 0000 0000 0000 000000
2016-10-25 05:26:06,0.10,0.55,0.00,19.29,24.72,28.22,14.82,48.43,1013.20,2042.16,3309.62,3001.78,3400.63,599.68,601.34,8.64,0000 0000 0000 0000 000000
2016-10-25 05:31:07,0.13,0.56,0.00,19.32,24.72,28.24,14.69,48.12,1013.21,2042.29,3306.88,3000.12,3398.82,600.04,601.64,8.69,0000 0000 0000 0000 000000
2016-10-25 05:36:08,0.11,0.57,0.00,19.33,24.72,28.23,14.77,48.13,1013.25,2042.33,3304.15,2998.33,3396.68,599.62,601.31,8.74,0000 0000 0000 0000 000000
2016-10-25 05:41:10,0.05,0.57,0.00,19.32,24.73,28.24,14.73,48.19,1013.29,2042.08,3302.46,2997.12,3395.30,599.69,601.33,8.79,0000 0000 0000 0000 000000
2016-10-25 05:46:11,0.06,0.57,0.00,19.36,24.74,28.25,14.67,48.02,1013.50,2042.09,3300.93,2996.11,3394.09,599.59,601.19,8.84,0000 0000 0000 0000 000000
2016-10-25 05:51:12,0.07,0.58,0.00,19.36,24.75,28.27,14.74,48.22,1013.63,2042.04,3299.38,2995.00,3392.84,600.80,602.45,8.89,0000 0000 0000 0000 000000
2016-10-25 05:56:13,0.07,0.58,0.00,19.40,24.75,28.24,14.80,48.19,1013.67,2042.03,3297.76,2994.00,3391.65,600.28,601.90,8.94,0000 0000 0000 0000 000000
2016-10-25 06:01:14,0.08,0.58,0.00,19.41,24.75,28.27,14.81,48.51,1013.66,2042.03,3296.07,2992.83,3390.57,599.89,601.55,8.99,0000 0000 0000 0000 000000
2016-10-25 06:06:15,0.08,0.59,0.00,19.42,24.75,28.30,14.69,48.17,1013.69,2042.04,3294.25,2991.64,3389.20,600.12,601.72,9.04,0000 0000 0000 0000 000000
2016-10-25 06:11:16,0.07,0.59,0.00,19.42,24.76,28.29,14.81,48.11,1013.69,2042.02,3292.61,2990.57,3387.88,600.35,602.02,9.09,0000 0000 0000 0000 000000
2016-10-25 06:16:18,0.07,0.60,0.00,19.42,24.77,28.32,14.74,48.37,1013.69,2042.01,3290.99,2989.52,3386.66,600.15,601.58,9.14,0000 0000 0000 0000 000000
2016-10-25 06:21:19,0.07,0.60,0.00,19.43,24.77,28.33,14.73,48.09,1013.69,2042.00,3289.24,2988.33,3385.34,599.70,601.33,9.19,0000 0000 0000 0000 000000
2016-10-25 06:26:20,0.08,0.60,0.00,19.44,24.77,28.31,14.77,48.23,1013.69,2042.00,3287.45,2987.10,3383.92,600.53,602.13,9.24,0000 0000 0000 0000 000000
2016-10-25 06:31:21,0.08,0.61,0.00,19.44,24.78,28.31,14.77,48.20,1013.69,2042.00,3285.66,2985.87,3382.58,599.49,600.99,9.29,0000 0000 0000 0000 000000
2016-10-25 06:36:22,0.09,0.61,0.00,19.45,24.80,28.32,14.73,47.90,1013.72,2042.00,3283.78,2984.61,3381.11,599.63,601.37,9.34,0000 0000 0000 0000 000000
2016-10-25 06:41:24,0.08,0.62,0.00,19.51,24.80,28.36,14.84,47.98,1013.75,2042.00,3281.93,2983.44,3379.68,600.00,601.45,9.39,0000 0000 0000 0000 000000
2016-10-25 06:46:25,0.09,0.62,0.00,19.48,24.80,28.34,14.84,48.17,1013.84,2042.00,3279.96,2981.94,3378.11,600.35,601.89,9.44,0000 0000 0000 0000 000000
2016-10-25 06:51:26,0.10,0.63,0.00,19.50,24.81,28.34,14.70,47.88,1014.00,2042.00,3277.91,2980.54,3376.49,599.76,601.47,9.49,0000 0000 0000 0000 000000
2016-10-25 06:56:27,0.10,0.63,0.00,19.50,24.82,28.35,14.76,48.49,1014.08,2042.00,3275.89,2978.98,3374.82,600.05,601.67,9.54,0000 0000 0000 0000 000000
2016-10-25 07:01:29,0.08,0.64,0.00,19.51,24.82,28.39,14.83,48.62,1014.11,2041.99,3273.99,2977.74,3373.35,600.10,601.76,9.59,0000 0000 0000 0000 000000
2016-10-25 07:06:30,0.09,0.64,0.00,19.54,24.83,28.38,14.74,48.38,1014.14,2041.99,3272.24,2976.49,3371.86,600.03,601.65,9.64,0000 0000 0000 0000 000000
2016-10-25 07:11:31,0.08,0.65,0.00,19.54,24.85,28.39,14.70,48.20,1014.15,2041.99,3270.32,2975.11,3370.36,599.72,601.39,9.69,0000 0000 0000 0000 000000
2016-10-25 07:16:32,0.08,0.65,0.00,19.55,24.85,28.43,14.89,48.46,1014.15,2041.97,3268.58,2973.83,3368.88,600.44,602.00,9.74,0000 0000 0000 0000 000000
2016-10-25 07:21:33,0.09,0.66,0.00,19.53,24.85,28.43,14.72,47.94,1014.16,2041.98,3266.72,2972.54,3367.49,599.52,601.18,9.79,0000 0000 0000 0000 000000
2016-10-25 07:26:35,0.08,0.66,0.00,19.55,24.87,28.46,14.74,48.08,1014.17,2041.98,3264.84,2971.30,3366.00,599.66,601.26,9.84,0000 0000 0000 0000 000000
2016-10-25 07:31:36,0.09,0.66,0.00,19.54,24.87,28.43,14.74,48.22,1014.17,2041.97,3263.08,2969.90,3364.52,599.66,601.37,9.89,0000 0000 0000 0000 000000
2016-10-25 07:36:37,0.09,0.67,0.00,19.56,24.87,28.47,14.79,48.34,1014.17,2041.95,3261.21,2968.62,3362.90,599.86,601.51,9.94,0000 0000 0000 0000 000000
2016-10-25 07:41:39,0.09,0.67,0.00,19.57,24.88,28.47,14.77,48.10,1014.17,2041.95,3259.13,2967.22,3361.39,599.95,601.47,9.99,0000 0000 0000 0000 000000
2016-10-25 07:46:40,0.11,0.68,0.00,19.57,24.90,28.45,14.69,48.17,1014.17,2041.95,3256.94,2965.69,3359.66,599.68,601.24,10.04,0000 0000 0000 0000 000000
2016-10-25 07:51:41,0.10,0.68,0.00,19.59,24.90,28.50,14.73,48.23,1014.18,2041.94,3254.65,2964.12,3357.85,600.10,601.62,10.09,0000 0000 0000 0000 000000
2016-10-25 07:56:43,0.10,0.69,0.00,19.61,24.90,28.48,14.76,48.32,1014.20,2041.90,3252.25,2962.50,3356.06,600.35,601.78,10.14,0000 0000 0000 0000 000000
2016-10-25 08:01:44,0.12,0.70,0.00,19.62,24.92,28.50,14.79,48.56,1014.28,2041.89,3249.60,2960.76,3354.11,600.18,601.70,10.19,0000 0000 0000 0000 000000
2016-10-25 08:06:45,0.09,0.70,0.00,19.62,24.92,28.50,14.69,48.02,1014.45,2041.62,3247.01,2959.01,3352.06,599.99,601.63,10.24,0000 0000 0000 0000 000000
2016-10-25 08:11:46,0.07,0.71,0.00,19.65,24.93,28.50,14.66,47.92,1014.59,2041.23,3244.43,2957.31,3350.13,599.69,601.48,10.29,0000 0000 0000 0000 000000
2016-10-25 08:16:48,0.12,0.71,0.00,19.68,24.95,28.50,14.81,48.19,1014.66,2041.29,3242.15,2955.84,3348.52,600.12,601.69,10.34,0000 0000 0000 0000 000000
2016-10-25 08:21:49,0.09,0.72,0.00,19.67,24.95,28.52,14.73,48.18,1014.66,2041.23,3239.95,2954.48,3346.89,599.64,601.30,10.40,0000 0000 0000 0000 000000
2016-10-25 08:26:50,0.11,0.72,0.00,19.68,24.95,28.53,14.73,48.23,1014.66,2041.08,3237.39,2952.81,3345.12,600.22,601.88,10.45,0000 0000 0000 0000 000000
2016-10-25 08:31:51,0.12,0.73,0.00,19.68,24.97,28.52,14.84,48.52,1014.66,2041.06,3234.69,2951.09,3343.17,600.00,601.63,10.50,0000 0000 0000 0000 000000
2016-10-25 08:36:53,0.13,0.73,0.00,19.69,24.97,28.55,14.72,48.57,1014.66,2041.08,3231.84,2949.36,3341.25,599.90,601.48,10.55,0000 0000 0000 0000 000000
2016-10-25 08:41:54,0.12,0.74,0.00,19.66,24.97,28.54,14.72,48.27,1014.66,2041.10,3229.19,2947.67,3339.34,598.96,600.63,10.60,0000 0000 0000 0000 000000
2016-10-25 08:46:56,0.11,0.75,0.00,19.66,24.97,28.56,14.67,48.02,1014.66,2041.11,3226.63,2946.05,3337.56,599.96,601.60,10.65,0000 0000 0000 0000 000000
2016-10-25 08:51:57,0.11,0.75,0.00,19.68,24.99,28.55,14.82,48.38,1014.66,2041.06,3224.11,2944.50,3335.74,600.43,601.88,10.70,0000 0000 0000 0000 000000
2016-10-25 08:56:58,0.11,0.76,0.00,19.66,25.00,28.56,14.64,48.10,1014.66,2041.05,3221.58,2942.97,3334.00,599.20,600.81,10.75,0000 0000 0000 0000 000000
2016-10-25 09:01:59,0.10,0.76,0.00,19.70,25.00,28.59,14.70,48.17,1014.67,2041.07,3219.23,2941.47,3332.30,599.83,601.42,10.80,0000 0000 0000 0000 000000
2016-10-25 09:07:00,0.10,0.77,0.00,19.70,25.01,28.56,14.71,48.12,1014.67,2041.06,3216.99,2940.03,3330.67,599.91,601.47,10.85,0000 0000 0000 0000 000000
2016-10-25 09:12:02,0.10,0.77,0.00,19.72,25.02,28.60,14.78,47.98,1014.67,2041.03,3214.76,2938.60,3329.08,600.29,601.84,10.90,0000 0000 0000 0000 000000
2016-10-25 09:17:03,0.09,0.78,0.00,19.74,25.02,28.59,14.70,48.34,1014.68,2041.05,3212.60,2937.27,3327.56,600.12,601.57,10.95,0000 0000 0000 0000 000000
2016-10-25 09:22:04,0.11,0.78,0.00,19.71,25.03,28.62,14.80,48.27,1014.69,2041.01,3210.27,2935.64,3325.77,600.41,602.07,11.00,0000 0000 0000 0000 000000
2016-10-25 09:27:06,0.09,0.79,0.00,19.72,25.05,28.60,14.75,48.04,1014.77,2041.00,3208.15,2934.28,3324.21,600.25,601.89,11.05,0000 0000 0000 0000 000000
2016-10-25 09:32:07,0.11,0.79,0.00,19.75,25.05,28.62,14.69,48.05,1014.72,2041.00,3205.96,2932.83,3322.61,599.69,601.24,11.10,0000 0000 0000 0000 000000
2016-10-25 09:37:08,0.08,0.80,0.00,19.76,25.07,28.59,14.81,48.58,1014.74,2041.00,3203.92,2931.54,3321.15,600.02,601.54,11.15,0000 0000 0000 0000 000000
2016-10-25 09:42:09,0.09,0.80,0.00,19.78,25.07,28.60,14.79,48.47,1014.78,2041.00,3201.88,2930.23,3319.67,600.16,601.67,11.20,0000 0000 0000 0000 000000
2016-10-25 09:47:10,0.09,0.81,0.00,19.75,25.09,28.63,14.78,48.18,1014.86,2041.00,3199.97,2928.91,3318.24,599.90,601.56,11.25,0000 0000 0000 0000 000000
2016-10-25 09:52:12,0.08,0.81,0.00,19.77,25.10,28.63,14.74,47.97,1014.88,2041.00,3198.18,2927.72,3316.77,599.29,600.85,11.30,0000 0000 0000 0000 000000
2016-10-25 09:57:13,0.08,0.82,0.00,19.78,25.11,28.65,14.79,48.17,1014.81,2040.99,3196.33,2926.51,3315.47,600.39,601.79,11.35,0000 0000 0000 0000 000000
2016-10-25 10:02:14,0.08,0.82,0.00,19.81,25.12,28.66,14.62,48.14,1014.77,2040.99,3194.46,2925.23,3313.99,599.21,600.64,11.40,0000 0000 0000 0000 000000
2016-10-25 10:07:15,0.09,0.82,0.00,19.83,25.13,28.67,14.67,48.09,1014.76,2040.98,3192.54,2923.96,3312.58,599.63,600.84,11.45,0000 0000 0000 0000 000000
2016-10-25 10:12:17,0.09,0.83,0.00,19.83,25.15,28.66,14.75,48.24,1014.80,2040.98,3190.60,2922.68,3311.29,599.80,601.09,11.50,0000 0000 0000 0000 000000
2016-10-25 10:17:18,0.09,0.83,0.00,19.89,25.16,28.70,14.71,48.30,1014.86,2040.97,3188.59,2921.45,3309.71,599.49,600.71,11.55,0000 0000 0000 0000 000000
2016-10-25 10:22:19,0.10,0.84,0.00,19.87,25.17,28.74,14.73,48.14,1014.85,2040.96,3186.25,2919.94,3308.02,600.39,601.74,11.60,0000 0000 0000 0000 000000
2016-10-25 10:27:20,0.09,0.85,0.00,19.89,25.18,28.73,14.69,48.07,1014.99,2040.81,3183.87,2918.30,3306.23,599.79,601.10,11.65,0000 0000 0000 0000 000000
2016-10-25 10:32:22,0.08,0.85,0.00,19.90,25.20,28.73,14.66,48.00,1015.09,2040.37,3181.09,2916.52,3304.21,599.73,601.17,11.70,0000 0000 0000 0000 000000
2016-10-25 10:37:23,0.10,0.85,0.00,19.90,25.20,28.75,14.62,47.94,1015.12,2040.28,3178.57,2914.94,3302.45,599.06,600.47,11.75,0000 0000 0000 0000 000000
2016-10-25 10:42:25,0.09,0.86,0.00,19.92,25.22,28.75,14.77,48.46,1015.15,2040.19,3176.49,2913.62,3300.81,600.18,601.61,11.80,0000 0000 0000 0000 000000
2016-10-25 10:47:26,0.08,0.86,0.00,19.92,25.22,28.74,14.71,48.01,1015.14,2040.11,3174.43,2912.28,3299.36,599.37,600.81,11.85,0000 0000 0000 0000 000000
2016-10-25 10:52:28,0.10,0.87,0.00,19.91,25.24,28.75,14.70,48.63,1015.15,2040.08,3172.41,2910.94,3297.84,600.22,601.61,11.90,0000 0000 0000 0000 000000
2016-10-25 10:57:29,0.08,0.87,0.00,19.92,25.25,28.75,14.80,48.43,1015.15,2040.03,3170.34,2909.56,3296.41,600.65,602.06,11.95,0000 0000 0000 0000 000000
2016-10-25 11:02:30,0.09,0.88,0.00,19.92,25.25,28.77,14.77,48.58,1015.15,2040.02,3168.25,2908.22,3294.84,600.33,601.71,12.00,0000 0000 0000 0000 000000
2016-10-25 11:07:32,0.10,0.88,0.00,19.95,25.27,28.78,14.75,48.17,1015.15,2040.00,3166.17,2906.83,3293.26,599.74,601.07,12.05,0000 0000 0000 0000 000000
2016-10-25 11:12:33,0.09,0.89,0.00,19.99,25.27,28.81,14.82,48.60,1015.15,2040.00,3164.20,2905.58,3291.77,600.70,601.97,12.10,0000 0000 0000 0000 000000
2016-10-25 11:17:34,0.09,0.89,0.00,19.98,25.29,28.81,14.78,48.58,1015.15,2040.00,3161.97,2904.22,3290.30,599.85,601.13,12.15,0000 0000 0000 0000 000000
2016-10-25 11:22:36,0.10,0.90,0.00,20.01,25.30,28.83,14.71,48.47,1015.15,2040.00,3159.87,2902.81,3288.68,600.25,601.45,12.20,0000 0000 0000 0000 000000
2016-10-25 11:27:37,0.09,0.90,0.00,20.02,25.30,28.85,14.81,48.31,1015.15,2040.00,3157.80,2901.52,3287.25,599.96,601.16,12.25,0000 0000 0000 0000 000000
2016-10-25 11:32:38,0.09,0.91,0.00,20.03,25.31,28.85,14.73,48.12,1015.15,2040.00,3155.73,2900.27,3285.70,599.60,600.80,12.30,0000 0000 0000 0000 000000
2016-10-25 11:37:40,0.08,0.91,0.00,20.04,25.32,28.85,14.73,48.13,1015.16,2040.00,3153.82,2899.06,3284.42,600.49,601.70,12.35,0000 0000 0000 0000 000000
2016-10-25 11:42:41,0.10,0.92,0.00,20.04,25.32,28.87,14.72,48.35,1015.15,2040.00,3151.73,2897.67,3282.86,599.94,601.14,12.40,0000 0000 0000 0000 000000
2016-10-25 11:47:42,0.09,0.92,0.00,20.06,25.33,28.89,14.72,48.24,1015.15,2040.00,3149.70,2896.42,3281.39,600.33,601.61,12.45,0000 0000 0000 0000 000000
2016-10-25 11:52:43,0.09,0.93,0.00,20.06,25.35,28.88,14.77,48.73,1015.16,2040.00,3147.77,2895.09,3279.84,600.06,601.22,12.50,0000 0000 0000 0000 000000
2016-10-25 11:57:45,0.09,0.93,0.00,20.06,25.35,28.88,14.78,48.65,1015.15,2039.99,3145.76,2893.78,3278.46,599.98,601.11,12.55,0000 0000 0000 0000 000000
2016-10-25 12:02:46,0.08,0.94,0.00,20.07,25.36,28.91,14.79,48.84,1015.15,2039.99,3143.95,2892.62,3277.12,600.09,601.22,12.60,0000 0000 0000 0000 000000
2016-10-25 12:07:47,0.08,0.94,0.00,20.08,25.37,28.94,14.80,48.65,1015.17,2039.97,3142.11,2891.46,3275.74,600.04,601.18,12.66,0000 0000 0000 0000 000000
2016-10-25 12:12:49,0.08,0.95,0.00,20.12,25.37,28.94,14.81,48.83,1015.17,2039.96,3140.32,2890.32,3274.44,600.69,601.73,12.71,0000 0000 0000 0000 000000
2016-10-25 12:17:50,0.08,0.95,0.00,20.09,25.39,28.92,14.73,48.86,1015.21,2039.96,3138.55,2889.13,3273.12,600.07,601.20,12.76,0000 0000 0000 0000 000000
2016-10-25 12:22:52,0.09,0.95,0.00,20.09,25.40,28.92,14.73,48.83,1015.23,2039.92,3136.69,2887.90,3271.76,599.75,600.85,12.81,0000 0000 0000 0000 000000
2016-10-25 12:27:54,0.08,0.96,0.00,20.13,25.40,28.92,14.70,48.67,1015.31,2039.87,3134.92,2886.72,3270.47,599.94,601.03,12.86,0000 0000 0000 0000 000000
2016-10-25 12:32:55,0.06,0.96,0.00,20.14,25.41,28.95,14.78,48.89,1015.31,2039.71,3133.23,2885.55,3269.08,600.07,601.15,12.91,0000 0000 0000 0000 000000
2016-10-25 12:37:57,0.07,0.97,0.00,20.12,25.42,28.98,14.67,48.32,1015.40,2039.56,3131.49,2884.44,3267.79,599.86,601.01,12.96,0000 0000 0000 0000 000000
2016-10-25 12:42:58,0.07,0.97,0.00,20.14,25.43,29.00,14.76,48.46,1015.40,2039.37,3129.67,2883.26,3266.48,599.75,600.87,13.01,0000 0000 0000 0000 000000
2016-10-25 12:47:59,0.06,0.97,0.00,20.15,25.45,28.98,14.78,48.71,1015.50,2039.21,3127.87,2882.04,3265.10,600.55,601.64,13.06,0000 0000 0000 0000 000000
2016-10-25 12:53:01,0.08,0.98,0.00,20.18,25.45,29.00,14.69,48.48,1015.34,2039.11,3126.07,2880.88,3263.81,599.73,600.68,13.11,0000 0000 0000 0000 000000
2016-10-25 12:58:02,0.08,0.98,0.00,20.20,25.47,29.01,14.78,48.41,1015.24,2039.09,3124.28,2879.77,3262.68,600.33,601.14,13.16,0000 0000 0000 0000 000000
2016-10-25 13:03:04,0.07,0.98,0.00,20.18,25.47,29.04,14.77,48.57,1015.26,2039.03,3122.46,2878.73,3261.39,600.64,601.61,13.21,0000 0000 0000 0000 000000